User: anonymous   Login
Location: Unspecified
(0.0000°N, 0.0000°E)
Time: 23:47:38
(UTC+00:00)
Language:

PLEIADES HR1 - Orbit

View from above orbital plane
View from above orbital plane
View from above satellite
View from above satellite

Ground track
Ground track

The orbit data is extracted from the following two-line orbital elements,

1 38012U 11076F   16176.72316394  .00000049  00000-0  20461-4 0  9995
2 38012  98.1997 250.9516 0001293  75.7988 284.3355 14.58556039240750
Epoch (UTC): 24 June 2016 17:21:21
Eccentricity: 0.0001293
inclination: 98.1997°
perigee height: 697 km
apogee height: 699 km
right ascension of ascending node: 250.9516°
argument of perigee: 75.7988°
revolutions per day: 14.58556039
mean anomaly at epoch: 284.3355°
orbit number at epoch: 24075

The dashed part of the orbit path shows where the satellite is in the earth's shadow,  

DLR